Skip Page Navigation
NASA JPL Caltech
NASA Logo - Jet Propulsion Laboratory + View the NASA Portal
+ Center for Near-Earth Object Studies
JPL Home Earth Solar System Stars & Galaxies Technology
JPL Solar System Dynamics
BODIES ORBITS EPHEMERIDES TOOLS PHYSICAL DATA DISCOVERY FAQ SITE MAP
IMPORTANT: The SSD Announcement email list is now available. Major changes are coming in the near future, including possible hostname and/or URL changes. To be notified of such changes, subscribe to this email list.

Please visit this page for more details.


JPL Small-Body Database Browser
Search: [ help ]  
136759 (1996 FB2)
Classification: Main-belt Asteroid          SPK-ID: 2136759
Ephemeris | Orbit Diagram | Orbital Elements | Mission Design | Physical Parameters | Discovery Circumstances | Close-Approach Data ]

[ show orbit diagram ]
Orbital Elements at Epoch 2458600.5 (2019-Apr-27.0) TDB
Reference: JPL 12 (heliocentric ecliptic J2000)
 Element Value Uncertainty (1-sigma)   Units 
e .09655259790017191 6.5692e-08  
a 2.551584299435461 2.1807e-08 au
q 2.305222206563677 1.6059e-07 au
i 25.40508759990387 7.2377e-06 deg
node 183.4460572903367 1.101e-05 deg
peri 352.5241943411691 3.6518e-05 deg
M 242.5880685312959 4.143e-05 deg
tp 2459086.037793379872
(2020-Aug-24.53779338)
0.00017539 TDB
period 1488.720979463187
4.08
1.9085e-05
5.225e-08
d
yr
n .2418183158336434 3.1001e-09 deg/d
Q 2.797946392307245 2.3913e-08 au
  Orbit Determination Parameters
   # obs. used (total)      381  
   data-arc span      8244 days (22.57 yr)  
   first obs. used      1996-03-20  
   last obs. used      2018-10-15  
   planetary ephem.      DE431  
   SB-pert. ephem.      SB431-N16  
   condition code      0  
   norm. resid. RMS      .6158  
   source      ORB  
   producer      Otto Matic  
   solution date      2018-Oct-31 02:23:30  

Additional Information
 Earth MOID = 1.30999 au 
 Jupiter MOID = 2.16431 au 
 T_jup = 3.298 
[ hide covariance matrix ]
Orbital Elements at Epoch 2456680.5 (2014-Jan-23.0) TDB
Reference: JPL 12 (heliocentric ecliptic J2000)
 Element Value Uncertainty (1-sigma)   Units 
e .09652657929743783 6.5832e-08  
q 2.305260696504134 1.6094e-07 au
tp 2456110.851899578762
(2012-Jul-02.35189958)
0.00015218 TDB
node 183.4556864423331 1.1011e-05 deg
peri 352.9711814471269 3.6344e-05 deg
i 25.40296718467683 7.237e-06 deg
  Orbit Determination Parameters
   # obs. used (total)      381  
   data-arc span      8244 days (22.57 yr)  
   first obs. used      1996-03-20  
   last obs. used      2018-10-15  
   planetary ephem.      DE431  
   SB-pert. ephem.      SB431-N16  
   condition code      0  
   norm. resid. RMS      .6158  
   source      ORB  
   producer      Otto Matic  
   solution date      2018-Oct-31 02:23:30  

Additional Information
 Jupiter MOID = 2.16431 au 
 T_jup = 3.298 
Orbit Covariance (6×6)
  e q tp node peri i
e 4.333814016404349E-15 -1.052902776443583E-14 3.736818034216935E-12 -1.193469649977534E-14 8.794565236468834E-13 -8.275985810892179E-15
q -1.052902776443583E-14 2.590296114320016E-14 -8.021883323275219E-12 2.797450990293504E-14 -1.880510451720578E-12 1.747850675398709E-14
tp 3.736818034216935E-12 -8.021883323275219E-12 2.315898843162238E-8 -1.082008675710107E-11 5.285295827953046E-9 -6.660701280461545E-11
node -1.193469649977534E-14 2.797450990293504E-14 -1.082008675710107E-11 1.212514772500557E-10 -1.115528201680955E-10 9.210295334063553E-12
peri 8.794565236468834E-13 -1.880510451720578E-12 5.285295827953046E-9 -1.115528201680955E-10 1.320902440125054E-9 -2.34390562339E-11
i -8.275985810892179E-15 1.747850675398709E-14 -6.660701280461545E-11 9.210295334063553E-12 -2.34390562339E-11 5.237392828308794E-11

Ephemeris | Orbit Diagram | Orbital Elements | Mission Design | Physical Parameters | Discovery Circumstances | Close-Approach Data ]

Physical Parameter Table
Parameter Symbol Value Units Sigma Reference Notes
absolute magnitude H 15.6   n/a MPO459645  
diameter diameter 4.427 km 0.107 urn:nasa:pds:neowise_diameters_albedos::2.0[mainbelt] (http://adsabs.harvard.edu/abs/2011ApJ...741...68M)  
geometric albedo albedo 0.057   0.010 urn:nasa:pds:neowise_diameters_albedos::2.0[mainbelt] (http://adsabs.harvard.edu/abs/2011ApJ...741...68M)  

136759 (1996 FB2)          Discovered 1996-Mar-20 by NEAT at Haleakala
Reference: 20061205/Numbers.arcLast Updated: 2006-12-13

[ show close-approach data ]
Alternate Designations
 1996 FB2 = 2004 ET33 
Ephemeris | Orbit Diagram | Orbital Elements | Mission Design | Physical Parameters | Discovery Circumstances | Close-Approach Data ]
ABOUT SSD CREDITS/AWARDS PRIVACY/COPYRIGHT GLOSSARY LINKS
FirstGov 2019-Dec-12 19:25 UT
(server date/time)  
NASA Home Page
Site Manager:   Ryan S. Park
Webmaster  Alan B. Chamberlin